Time,TemperatureF,DewpointF,PressureIn,WindDirection,WindDirectionDegrees,WindSpeedMPH,WindSpeedGustMPH,Humidity,HourlyPrecipIn,Conditions,Clouds,dailyrainin,SoftwareType,DateUTC
2013-08-05 00:00:00,58.7,53.5,29.22,North,360,0.0,0.0,83,0.00,,,0.00,Wunderground v.1.15,2013-08-05 04:00:00,
2013-08-05 00:05:00,58.6,53.5,29.22,North,360,0.0,0.0,83,0.00,,,0.00,Wunderground v.1.15,2013-08-05 04:05:00,
2013-08-05 00:10:00,58.6,53.5,29.23,North,360,0.0,0.0,83,0.00,,,0.00,Wunderground v.1.15,2013-08-05 04:10:00,
2013-08-05 00:15:00,58.6,53.5,29.23,North,360,0.0,0.0,83,0.00,,,0.00,Wunderground v.1.15,2013-08-05 04:15:00,
2013-08-05 00:20:00,58.6,53.5,29.23,North,360,0.0,0.0,83,0.00,,,0.00,Wunderground v.1.15,2013-08-05 04:20:00,
2013-08-05 00:24:00,58.6,53.1,29.23,North,360,0.0,0.0,82,0.00,,,0.00,Wunderground v.1.15,2013-08-05 04:24:00,
2013-08-05 00:30:00,58.5,53.0,29.23,North,360,0.0,0.0,82,0.00,,,0.00,Wunderground v.1.15,2013-08-05 04:30:00,
2013-08-05 00:35:00,58.4,52.9,29.23,North,360,0.0,0.0,82,0.00,,,0.00,Wunderground v.1.15,2013-08-05 04:35:00,
2013-08-05 00:40:00,58.2,53.1,29.23,North,360,0.0,0.0,83,0.00,,,0.00,Wunderground v.1.15,2013-08-05 04:40:00,
2013-08-05 00:45:00,58.2,53.1,29.23,North,360,0.0,0.0,83,0.00,,,0.00,Wunderground v.1.15,2013-08-05 04:45:00,
2013-08-05 00:50:00,58.1,53.0,29.23,North,360,0.0,0.0,83,0.00,,,0.00,Wunderground v.1.15,2013-08-05 04:50:00,
2013-08-05 00:55:00,58.0,52.9,29.22,North,360,0.0,0.0,83,0.00,,,0.00,Wunderground v.1.15,2013-08-05 04:55:00,
2013-08-05 01:05:00,57.7,52.9,29.23,North,360,0.0,0.0,84,0.00,,,0.00,Wunderground v.1.15,2013-08-05 05:05:00,
2013-08-05 01:10:00,57.5,52.7,29.23,North,360,0.0,0.0,84,0.00,,,0.00,Wunderground v.1.15,2013-08-05 05:10:00,
2013-08-05 01:15:00,57.4,52.9,29.23,North,360,0.0,0.0,85,0.00,,,0.00,Wunderground v.1.15,2013-08-05 05:15:00,
2013-08-05 01:20:00,57.3,52.8,29.23,North,360,0.0,0.0,85,0.00,,,0.00,Wunderground v.1.15,2013-08-05 05:20:00,
2013-08-05 01:25:00,57.3,52.8,29.23,North,360,0.0,0.0,85,0.00,,,0.00,Wunderground v.1.15,2013-08-05 05:25:00,
2013-08-05 01:35:00,57.1,53.0,29.23,North,360,0.0,0.0,86,0.00,,,0.00,Wunderground v.1.15,2013-08-05 05:35:00,
2013-08-05 01:39:00,57.1,53.0,29.23,North,360,0.0,0.0,86,0.00,,,0.00,Wunderground v.1.15,2013-08-05 05:39:00,
2013-08-05 01:45:00,57.1,53.0,29.23,North,360,0.0,0.0,86,0.00,,,0.00,Wunderground v.1.15,2013-08-05 05:45:00,
2013-08-05 01:50:00,57.1,53.0,29.23,North,360,0.0,0.0,86,0.00,,,0.00,Wunderground v.1.15,2013-08-05 05:50:00,
2013-08-05 01:55:00,57.0,52.9,29.22,North,360,0.0,0.0,86,0.00,,,0.00,Wunderground v.1.15,2013-08-05 05:55:00,
2013-08-05 02:00:00,56.9,52.8,29.22,North,360,0.0,0.0,86,0.00,,,0.00,Wunderground v.1.15,2013-08-05 06:00:00,
2013-08-05 02:10:00,56.8,53.0,29.22,North,360,0.0,0.0,87,0.00,,,0.00,Wunderground v.1.15,2013-08-05 06:10:00,
2013-08-05 02:15:00,56.7,52.9,29.23,North,360,0.0,0.0,87,0.00,,,0.00,Wunderground v.1.15,2013-08-05 06:15:00,
2013-08-05 02:19:00,56.7,52.9,29.23,North,360,0.0,0.0,87,0.00,,,0.00,Wunderground v.1.15,2013-08-05 06:19:00,
2013-08-05 02:24:00,56.7,52.9,29.23,North,360,0.0,0.0,87,0.00,,,0.00,Wunderground v.1.15,2013-08-05 06:24:00,
2013-08-05 02:30:00,56.7,52.9,29.22,North,360,0.0,0.0,87,0.00,,,0.00,Wunderground v.1.15,2013-08-05 06:30:00,
2013-08-05 02:39:00,56.5,53.0,29.23,North,360,0.0,0.0,88,0.00,,,0.01,Wunderground v.1.15,2013-08-05 06:39:00,
2013-08-05 02:44:00,56.4,52.9,29.23,North,360,0.0,0.0,88,0.00,,,0.01,Wunderground v.1.15,2013-08-05 06:44:00,
2013-08-05 02:49:00,56.3,52.8,29.22,North,360,0.0,0.0,88,0.00,,,0.01,Wunderground v.1.15,2013-08-05 06:49:00,
2013-08-05 02:54:00,56.2,52.7,29.23,North,360,0.0,0.0,88,0.00,,,0.01,Wunderground v.1.15,2013-08-05 06:54:00,
2013-08-05 02:59:00,56.1,52.6,29.23,North,360,0.0,0.0,88,0.00,,,0.01,Wunderground v.1.15,2013-08-05 06:59:00,
2013-08-05 03:04:00,56.0,52.5,29.22,North,360,0.0,0.0,88,0.00,,,0.01,Wunderground v.1.15,2013-08-05 07:04:00,
2013-08-05 03:10:00,56.0,52.8,29.22,North,360,0.0,0.0,89,0.00,,,0.01,Wunderground v.1.15,2013-08-05 07:10:00,
2013-08-05 03:14:00,56.0,52.8,29.23,North,360,0.0,0.0,89,0.00,,,0.01,Wunderground v.1.15,2013-08-05 07:14:00,
2013-08-05 03:19:00,55.8,52.6,29.23,North,360,0.0,0.0,89,0.00,,,0.01,Wunderground v.1.15,2013-08-05 07:19:00,
2013-08-05 03:25:00,55.7,52.5,29.23,North,360,0.0,0.0,89,0.00,,,0.01,Wunderground v.1.15,2013-08-05 07:25:00,
2013-08-05 03:30:00,55.6,52.4,29.23,North,360,0.0,0.0,89,0.00,,,0.01,Wunderground v.1.15,2013-08-05 07:30:00,
2013-08-05 03:35:00,55.5,52.6,29.23,North,360,0.0,0.0,90,0.00,,,0.01,Wunderground v.1.15,2013-08-05 07:35:00,
2013-08-05 03:45:00,55.5,52.6,29.23,NNW,341,0.0,0.0,90,0.00,,,0.01,Wunderground v.1.15,2013-08-05 07:45:00,
2013-08-05 03:50:00,55.3,52.7,29.23,NNW,341,0.0,0.0,91,0.00,,,0.01,Wunderground v.1.15,2013-08-05 07:50:00,
2013-08-05 03:55:00,55.3,52.7,29.23,NNW,341,0.0,0.0,91,0.00,,,0.01,Wunderground v.1.15,2013-08-05 07:55:00,
2013-08-05 03:59:00,55.3,52.7,29.23,NNW,341,0.0,0.0,91,0.00,,,0.01,Wunderground v.1.15,2013-08-05 07:59:00,
2013-08-05 04:05:00,55.2,52.6,29.23,NNW,341,0.0,0.0,91,0.00,,,0.01,Wunderground v.1.15,2013-08-05 08:05:00,
2013-08-05 04:15:00,55.2,52.9,29.23,NNW,341,0.0,0.0,92,0.00,,,0.01,Wunderground v.1.15,2013-08-05 08:15:00,
2013-08-05 04:20:00,55.1,52.8,29.23,NNW,341,0.0,0.0,92,0.00,,,0.01,Wunderground v.1.15,2013-08-05 08:20:00,
2013-08-05 04:25:00,55.1,52.8,29.23,NNW,341,0.0,0.0,92,0.00,,,0.01,Wunderground v.1.15,2013-08-05 08:25:00,
2013-08-05 04:30:00,55.1,52.8,29.23,NNW,341,0.0,0.0,92,0.00,,,0.01,Wunderground v.1.15,2013-08-05 08:30:00,
2013-08-05 04:34:00,55.0,52.7,29.23,NNW,341,0.0,0.0,92,0.00,,,0.01,Wunderground v.1.15,2013-08-05 08:34:00,
2013-08-05 04:40:00,54.8,52.5,29.23,NNW,341,0.0,0.0,92,0.00,,,0.01,Wunderground v.1.15,2013-08-05 08:40:00,
2013-08-05 04:45:00,54.8,52.5,29.23,NNW,341,0.0,0.0,92,0.00,,,0.01,Wunderground v.1.15,2013-08-05 08:45:00,
2013-08-05 04:50:00,54.6,52.3,29.23,NNW,341,0.0,0.0,92,0.00,,,0.01,Wunderground v.1.15,2013-08-05 08:50:00,
2013-08-05 05:00:00,54.7,52.7,29.24,NNW,340,0.0,0.0,93,0.00,,,0.01,Wunderground v.1.15,2013-08-05 09:00:00,
2013-08-05 05:10:00,54.2,52.2,29.24,NW,305,0.0,0.0,93,0.00,,,0.01,Wunderground v.1.15,2013-08-05 09:10:00,
2013-08-05 05:14:00,54.1,52.1,29.24,NW,304,0.0,0.0,93,0.00,,,0.01,Wunderground v.1.15,2013-08-05 09:14:00,
2013-08-05 05:20:00,54.1,52.1,29.24,WNW,303,0.0,0.0,93,0.00,,,0.01,Wunderground v.1.15,2013-08-05 09:20:00,
2013-08-05 05:35:00,54.2,52.5,29.25,WNW,303,0.0,0.0,94,0.00,,,0.01,Wunderground v.1.15,2013-08-05 09:35:00,
2013-08-05 05:39:00,54.1,52.4,29.25,WNW,302,0.0,0.0,94,0.00,,,0.01,Wunderground v.1.15,2013-08-05 09:39:00,
2013-08-05 05:45:00,54.0,52.3,29.25,WNW,302,0.0,0.0,94,0.00,,,0.01,Wunderground v.1.15,2013-08-05 09:45:00,
2013-08-05 05:50:00,54.0,52.3,29.25,WNW,302,0.0,0.0,94,0.00,,,0.01,Wunderground v.1.15,2013-08-05 09:50:00,
2013-08-05 05:55:00,53.9,52.2,29.25,WNW,298,0.0,0.0,94,0.00,,,0.01,Wunderground v.1.15,2013-08-05 09:55:00,
2013-08-05 06:00:00,53.8,52.1,29.25,WNW,298,0.0,0.0,94,0.00,,,0.01,Wunderground v.1.15,2013-08-05 10:00:00,
2013-08-05 06:09:00,53.7,52.0,29.25,WNW,298,0.0,0.0,94,0.00,,,0.01,Wunderground v.1.15,2013-08-05 10:09:00,
2013-08-05 06:14:00,53.7,52.0,29.26,WNW,298,0.0,0.0,94,0.00,,,0.01,Wunderground v.1.15,2013-08-05 10:14:00,
2013-08-05 06:19:00,53.7,52.0,29.26,WNW,298,0.0,0.0,94,0.00,,,0.01,Wunderground v.1.15,2013-08-05 10:19:00,
2013-08-05 06:24:00,53.9,52.2,29.26,WNW,298,0.0,0.0,94,0.00,,,0.01,Wunderground v.1.15,2013-08-05 10:24:00,
2013-08-05 06:30:00,54.1,52.4,29.26,WNW,299,0.0,0.0,94,0.00,,,0.01,Wunderground v.1.15,2013-08-05 10:30:00,
2013-08-05 06:49:00,55.6,53.6,29.26,WNW,297,0.0,1.0,93,0.00,,,0.01,Wunderground v.1.15,2013-08-05 10:49:00,
2013-08-05 06:54:00,56.0,54.0,29.26,WNW,293,1.0,1.0,93,0.00,,,0.01,Wunderground v.1.15,2013-08-05 10:54:00,
2013-08-05 07:00:00,56.4,54.1,29.26,WNW,292,1.0,1.0,92,0.00,,,0.01,Wunderground v.1.15,2013-08-05 11:00:00,
2013-08-05 07:09:00,57.3,54.4,29.26,WNW,302,1.0,1.0,90,0.00,,,0.01,Wunderground v.1.15,2013-08-05 11:09:00,
2013-08-05 07:14:00,57.8,54.6,29.26,WNW,295,1.0,1.0,89,0.00,,,0.01,Wunderground v.1.15,2013-08-05 11:14:00,
2013-08-05 07:19:00,58.4,54.9,29.26,NW,309,1.0,1.0,88,0.00,,,0.01,Wunderground v.1.15,2013-08-05 11:19:00,
2013-08-05 07:25:00,59.0,55.1,29.26,WNW,292,1.0,1.0,87,0.00,,,0.01,Wunderground v.1.15,2013-08-05 11:25:00,
2013-08-05 07:29:00,59.6,55.4,29.26,WNW,298,1.0,1.0,86,0.00,,,0.01,Wunderground v.1.15,2013-08-05 11:29:00,
2013-08-05 07:35:00,60.3,55.8,29.26,NW,305,0.0,1.0,85,0.00,,,0.01,Wunderground v.1.15,2013-08-05 11:35:00,
2013-08-05 07:45:00,61.3,55.8,29.26,WNW,298,0.0,2.0,82,0.00,,,0.01,Wunderground v.1.15,2013-08-05 11:45:00,
2013-08-05 07:54:00,62.6,56.7,29.26,WNW,296,0.0,0.0,81,0.00,,,0.01,Wunderground v.1.15,2013-08-05 11:54:00,
2013-08-05 08:05:00,64.0,57.4,29.26,WNW,296,0.0,0.0,79,0.00,,,0.01,Wunderground v.1.15,2013-08-05 12:05:00,
2013-08-05 08:09:00,64.8,57.8,29.26,WNW,296,0.0,0.0,78,0.00,,,0.01,Wunderground v.1.15,2013-08-05 12:09:00,
2013-08-05 08:15:00,65.7,57.9,29.26,WNW,296,0.0,0.0,76,0.00,,,0.01,Wunderground v.1.15,2013-08-05 12:15:00,
2013-08-05 08:20:00,66.1,57.9,29.27,WNW,293,0.0,0.0,75,0.00,,,0.01,Wunderground v.1.15,2013-08-05 12:20:00,
2013-08-05 08:24:00,66.3,57.8,29.27,WNW,293,0.0,0.0,74,0.00,,,0.01,Wunderground v.1.15,2013-08-05 12:24:00,
2013-08-05 08:34:00,67.0,58.4,29.27,NW,319,0.0,0.0,74,0.00,,,0.01,Wunderground v.1.15,2013-08-05 12:34:00,
2013-08-05 08:40:00,67.4,58.4,29.27,NW,311,0.0,0.0,73,0.00,,,0.01,Wunderground v.1.15,2013-08-05 12:40:00,
2013-08-05 08:44:00,67.8,58.8,29.27,WNW,292,0.0,1.0,73,0.00,,,0.01,Wunderground v.1.15,2013-08-05 12:44:00,
2013-08-05 08:50:00,68.2,58.8,29.27,WNW,286,1.0,1.0,72,0.00,,,0.01,Wunderground v.1.15,2013-08-05 12:50:00,
2013-08-05 08:55:00,68.7,59.7,29.27,NNW,340,1.0,2.0,73,0.00,,,0.01,Wunderground v.1.15,2013-08-05 12:55:00,
2013-08-05 08:59:00,69.2,59.8,29.27,NW,318,0.0,1.0,72,0.00,,,0.01,Wunderground v.1.15,2013-08-05 12:59:00,
2013-08-05 09:10:00,69.7,59.5,29.27,WNW,296,0.0,3.0,70,0.00,,,0.01,Wunderground v.1.15,2013-08-05 13:10:00,
2013-08-05 09:15:00,69.4,59.2,29.27,NW,319,1.0,3.0,70,0.00,,,0.01,Wunderground v.1.15,2013-08-05 13:15:00,
2013-08-05 09:24:00,69.7,59.9,29.27,NW,322,1.0,1.0,71,0.00,,,0.01,Wunderground v.1.15,2013-08-05 13:24:00,
2013-08-05 09:30:00,69.7,59.5,29.27,NW,313,0.0,0.0,70,0.00,,,0.01,Wunderground v.1.15,2013-08-05 13:30:00,
2013-08-05 09:34:00,69.8,60.0,29.27,WNW,298,1.0,1.0,71,0.00,,,0.01,Wunderground v.1.15,2013-08-05 13:34:00,
2013-08-05 09:45:00,71.5,61.2,29.27,WNW,290,0.0,1.0,70,0.00,,,0.01,Wunderground v.1.15,2013-08-05 13:45:00,
2013-08-05 09:49:00,72.4,61.2,29.27,North,5,1.0,1.0,68,0.00,,,0.01,Wunderground v.1.15,2013-08-05 13:49:00,
2013-08-05 09:55:00,72.9,60.9,29.27,NW,304,2.0,2.0,66,0.00,,,0.01,Wunderground v.1.15,2013-08-05 13:55:00,
2013-08-05 10:00:00,73.2,60.3,29.27,NW,322,1.0,1.0,64,0.00,,,0.01,Wunderground v.1.15,2013-08-05 14:00:00,
2013-08-05 10:05:00,73.0,61.0,29.27,NW,323,1.0,1.0,66,0.00,,,0.01,Wunderground v.1.15,2013-08-05 14:05:00,
2013-08-05 10:10:00,73.0,60.5,29.27,NNW,342,1.0,1.0,65,0.00,,,0.01,Wunderground v.1.15,2013-08-05 14:10:00,
2013-08-05 10:19:00,73.3,60.8,29.27,NNW,335,1.0,1.0,65,0.00,,,0.01,Wunderground v.1.15,2013-08-05 14:19:00,
2013-08-05 10:24:00,73.7,60.8,29.27,WNW,290,1.0,2.0,64,0.00,,,0.01,Wunderground v.1.15,2013-08-05 14:24:00,
2013-08-05 10:29:00,74.0,61.0,29.27,WNW,292,1.0,1.0,64,0.00,,,0.01,Wunderground v.1.15,2013-08-05 14:29:00,
2013-08-05 10:34:00,75.0,61.5,29.27,North,11,0.0,2.0,63,0.00,,,0.01,Wunderground v.1.15,2013-08-05 14:34:00,
2013-08-05 10:39:00,75.8,60.0,29.26,NNW,331,1.0,1.0,58,0.00,,,0.01,Wunderground v.1.15,2013-08-05 14:39:00,
2013-08-05 10:49:00,76.9,60.0,29.26,NNW,340,1.0,1.0,56,0.00,,,0.01,Wunderground v.1.15,2013-08-05 14:49:00,
2013-08-05 10:54:00,77.7,59.7,29.26,NNW,342,2.0,2.0,54,0.00,,,0.01,Wunderground v.1.15,2013-08-05 14:54:00,
2013-08-05 10:59:00,78.2,60.2,29.26,NNW,338,1.0,2.0,54,0.00,,,0.01,Wunderground v.1.15,2013-08-05 14:59:00,
2013-08-05 11:04:00,78.2,58.6,29.26,NNW,329,0.0,3.0,51,0.00,,,0.01,Wunderground v.1.15,2013-08-05 15:04:00,
2013-08-05 11:09:00,77.5,59.5,29.26,NNW,344,1.0,3.0,54,0.00,,,0.01,Wunderground v.1.15,2013-08-05 15:09:00,
2013-08-05 11:14:00,77.2,59.3,29.26,North,351,1.0,3.0,54,0.00,,,0.01,Wunderground v.1.15,2013-08-05 15:14:00,
2013-08-05 11:24:00,77.1,58.6,29.26,NNW,346,1.0,1.0,53,0.00,,,0.01,Wunderground v.1.15,2013-08-05 15:24:00,
2013-08-05 11:30:00,77.3,58.3,29.25,North,5,0.0,0.0,52,0.00,,,0.01,Wunderground v.1.15,2013-08-05 15:30:00,
2013-08-05 11:35:00,77.5,59.5,29.25,NNW,329,0.0,0.0,54,0.00,,,0.01,Wunderground v.1.15,2013-08-05 15:35:00,
2013-08-05 11:40:00,77.8,59.3,29.25,NNE,22,1.0,4.0,53,0.00,,,0.01,Wunderground v.1.15,2013-08-05 15:40:00,
2013-08-05 11:50:00,77.1,57.0,29.25,North,355,3.0,3.0,50,0.00,,,0.01,Wunderground v.1.15,2013-08-05 15:50:00,
2013-08-05 12:00:00,77.0,58.0,29.25,NNE,30,1.0,2.0,52,0.00,,,0.01,Wunderground v.1.15,2013-08-05 16:00:00,
2013-08-05 12:25:00,79.0,57.0,29.25,NNE,17,3.0,4.0,47,0.00,,,0.01,Wunderground v.1.15,2013-08-05 16:25:00,
2013-08-05 12:30:00,78.9,57.0,29.24,NNE,17,1.0,2.0,47,0.00,,,0.01,Wunderground v.1.15,2013-08-05 16:30:00,
2013-08-05 12:35:00,79.1,55.9,29.24,NNE,26,2.0,2.0,45,0.00,,,0.01,Wunderground v.1.15,2013-08-05 16:35:00,
2013-08-05 12:45:00,78.7,55.0,29.24,NNE,27,1.0,3.0,44,0.00,,,0.02,Wunderground v.1.15,2013-08-05 16:45:00,
2013-08-05 12:50:00,78.6,56.7,29.24,NNE,13,0.0,0.0,47,0.00,,,0.02,Wunderground v.1.15,2013-08-05 16:50:00,
2013-08-05 12:59:00,78.9,55.8,29.23,North,360,1.0,1.0,45,0.00,,,0.02,Wunderground v.1.15,2013-08-05 16:59:00,
2013-08-05 13:05:00,79.4,56.2,29.23,NNW,348,1.0,1.0,45,0.00,,,0.02,Wunderground v.1.15,2013-08-05 17:05:00,
2013-08-05 13:15:00,79.8,55.9,29.22,NNW,347,1.0,1.0,44,0.00,,,0.02,Wunderground v.1.15,2013-08-05 17:15:00,
2013-08-05 13:25:00,80.3,55.8,29.22,NNW,348,1.0,1.0,43,0.00,,,0.02,Wunderground v.1.15,2013-08-05 17:25:00,
2013-08-05 13:30:00,80.4,56.5,29.22,NE,34,1.0,4.0,44,0.00,,,0.02,Wunderground v.1.15,2013-08-05 17:30:00,
2013-08-05 13:35:00,80.0,55.5,29.22,NE,40,2.0,4.0,43,0.00,,,0.02,Wunderground v.1.15,2013-08-05 17:35:00,
2013-08-05 13:45:00,78.7,56.2,29.22,North,355,2.0,3.0,46,0.00,,,0.02,Wunderground v.1.15,2013-08-05 17:45:00,
2013-08-05 13:50:00,78.9,54.5,29.22,NNW,348,1.0,1.0,43,0.00,,,0.02,Wunderground v.1.15,2013-08-05 17:50:00,
2013-08-05 14:00:00,79.5,55.7,29.22,North,360,1.0,2.0,44,0.00,,,0.02,Wunderground v.1.15,2013-08-05 18:00:00,
2013-08-05 14:05:00,80.3,57.6,29.22,WNW,295,2.0,2.0,46,0.00,,,0.02,Wunderground v.1.15,2013-08-05 18:05:00,
2013-08-05 14:10:00,80.8,58.1,29.22,NNW,340,2.0,2.0,46,0.00,,,0.02,Wunderground v.1.15,2013-08-05 18:10:00,
2013-08-05 14:15:00,81.1,56.5,29.21,NNW,342,1.0,2.0,43,0.00,,,0.02,Wunderground v.1.15,2013-08-05 18:15:00,
2013-08-05 14:20:00,80.5,55.3,29.21,NNE,22,1.0,5.0,42,0.00,,,0.02,Wunderground v.1.15,2013-08-05 18:20:00,
2013-08-05 14:25:00,80.7,56.8,29.21,NW,309,1.0,5.0,44,0.00,,,0.02,Wunderground v.1.15,2013-08-05 18:25:00,
2013-08-05 14:35:00,80.2,56.3,29.21,WNW,293,0.0,1.0,44,0.00,,,0.02,Wunderground v.1.15,2013-08-05 18:35:00,
2013-08-05 14:40:00,79.6,55.1,29.20,WNW,289,0.0,0.0,43,0.00,,,0.02,Wunderground v.1.15,2013-08-05 18:40:00,
2013-08-05 14:45:00,78.9,55.8,29.21,WNW,297,0.0,0.0,45,0.00,,,0.02,Wunderground v.1.15,2013-08-05 18:45:00,
2013-08-05 14:55:00,77.6,55.2,29.21,WNW,296,0.0,0.0,46,0.00,,,0.02,Wunderground v.1.15,2013-08-05 18:55:00,
2013-08-05 15:05:00,77.7,55.3,29.21,NNW,337,0.0,4.0,46,0.00,,,0.02,Wunderground v.1.15,2013-08-05 19:05:00,
2013-08-05 15:10:00,78.4,55.3,29.20,NNE,32,0.0,5.0,45,0.00,,,0.02,Wunderground v.1.15,2013-08-05 19:10:00,
2013-08-05 15:15:00,77.7,56.4,29.21,NE,51,1.0,5.0,48,0.00,,,0.02,Wunderground v.1.15,2013-08-05 19:15:00,
2013-08-05 15:25:00,77.4,57.3,29.20,NE,42,1.0,3.0,50,0.00,,,0.02,Wunderground v.1.15,2013-08-05 19:25:00,
2013-08-05 15:35:00,76.9,56.8,29.20,NE,42,1.0,2.0,50,0.00,,,0.02,Wunderground v.1.15,2013-08-05 19:35:00,
2013-08-05 15:40:00,76.8,56.8,29.19,NE,42,0.0,0.0,50,0.00,,,0.02,Wunderground v.1.15,2013-08-05 19:40:00,
2013-08-05 15:45:00,76.6,55.4,29.20,NE,42,0.0,0.0,48,0.00,,,0.02,Wunderground v.1.15,2013-08-05 19:45:00,
2013-08-05 15:55:00,76.4,55.8,29.19,NE,38,1.0,2.0,49,0.00,,,0.02,Wunderground v.1.15,2013-08-05 19:55:00,
2013-08-05 16:05:00,76.3,57.4,29.19,NE,38,0.0,1.0,52,0.00,,,0.02,Wunderground v.1.15,2013-08-05 20:05:00,
2013-08-05 16:10:00,76.4,55.8,29.19,NE,38,0.0,0.0,49,0.00,,,0.02,Wunderground v.1.15,2013-08-05 20:10:00,
2013-08-05 16:15:00,76.4,56.4,29.19,NE,38,0.0,0.0,50,0.00,,,0.02,Wunderground v.1.15,2013-08-05 20:15:00,
2013-08-05 16:20:00,76.2,56.2,29.19,NNE,33,0.0,0.0,50,0.00,,,0.02,Wunderground v.1.15,2013-08-05 20:20:00,
2013-08-05 16:25:00,75.8,55.8,29.19,NNE,33,0.0,0.0,50,0.00,,,0.02,Wunderground v.1.15,2013-08-05 20:25:00,
2013-08-05 16:30:00,75.2,56.4,29.19,NNE,33,0.0,0.0,52,0.00,,,0.02,Wunderground v.1.15,2013-08-05 20:30:00,
2013-08-05 16:35:00,74.6,55.8,29.19,NNE,33,0.0,0.0,52,0.00,,,0.02,Wunderground v.1.15,2013-08-05 20:35:00,
2013-08-05 16:50:00,73.2,57.5,29.19,NE,34,1.0,1.0,58,0.00,,,0.02,Wunderground v.1.15,2013-08-05 20:50:00,
2013-08-05 16:55:00,72.8,57.2,29.19,NE,44,1.0,2.0,58,0.00,,,0.02,Wunderground v.1.15,2013-08-05 20:55:00,
2013-08-05 17:00:00,73.3,57.6,29.19,NE,44,1.0,1.0,58,0.00,,,0.02,Wunderground v.1.15,2013-08-05 21:00:00,
2013-08-05 17:05:00,73.3,56.7,29.19,NE,49,2.0,2.0,56,0.00,,,0.02,Wunderground v.1.15,2013-08-05 21:05:00,
2013-08-05 17:10:00,73.5,57.3,29.19,NE,36,2.0,4.0,57,0.00,,,0.02,Wunderground v.1.15,2013-08-05 21:10:00,
2013-08-05 17:20:00,74.6,56.9,29.19,NNE,32,2.0,2.0,54,0.00,,,0.02,Wunderground v.1.15,2013-08-05 21:20:00,
2013-08-05 17:30:00,74.8,57.5,29.18,NNE,32,0.0,0.0,55,0.00,,,0.02,Wunderground v.1.15,2013-08-05 21:30:00,
2013-08-05 17:35:00,74.9,57.1,29.18,NE,36,1.0,1.0,54,0.00,,,0.02,Wunderground v.1.15,2013-08-05 21:35:00,
2013-08-05 17:45:00,75.8,56.9,29.19,NNE,28,1.0,2.0,52,0.00,,,0.02,Wunderground v.1.15,2013-08-05 21:45:00,
2013-08-05 17:50:00,76.2,57.3,29.19,NNE,30,1.0,1.0,52,0.00,,,0.02,Wunderground v.1.15,2013-08-05 21:50:00,
2013-08-05 18:00:00,75.8,57.4,29.18,NNE,31,0.0,0.0,53,0.00,,,0.02,Wunderground v.1.15,2013-08-05 22:00:00,
2013-08-05 18:05:00,75.5,56.1,29.18,NNE,31,0.0,0.0,51,0.00,,,0.02,Wunderground v.1.15,2013-08-05 22:05:00,
2013-08-05 18:10:00,75.4,56.0,29.18,NNE,31,0.0,0.0,51,0.00,,,0.02,Wunderground v.1.15,2013-08-05 22:10:00,
2013-08-05 18:15:00,75.4,56.5,29.18,NNE,31,0.0,0.0,52,0.00,,,0.02,Wunderground v.1.15,2013-08-05 22:15:00,
2013-08-05 18:20:00,74.7,55.9,29.18,NNE,31,0.0,0.0,52,0.00,,,0.02,Wunderground v.1.15,2013-08-05 22:20:00,
2013-08-05 18:30:00,73.5,57.8,29.18,NNE,31,0.0,0.0,58,0.00,,,0.02,Wunderground v.1.15,2013-08-05 22:30:00,
2013-08-05 18:40:00,72.2,57.5,29.18,NNE,31,0.0,0.0,60,0.00,,,0.02,Wunderground v.1.15,2013-08-05 22:40:00,
2013-08-05 18:45:00,71.8,56.7,29.18,NNE,31,0.0,0.0,59,0.00,,,0.02,Wunderground v.1.15,2013-08-05 22:45:00,
2013-08-05 18:50:00,72.0,56.9,29.18,NNE,31,0.0,0.0,59,0.00,,,0.02,Wunderground v.1.15,2013-08-05 22:50:00,
2013-08-05 18:55:00,72.2,58.0,29.18,NNE,31,0.0,0.0,61,0.00,,,0.02,Wunderground v.1.15,2013-08-05 22:55:00,
2013-08-05 19:00:00,72.1,57.9,29.18,NNE,31,0.0,0.0,61,0.00,,,0.02,Wunderground v.1.15,2013-08-05 23:00:00,
2013-08-05 19:05:00,71.7,57.1,29.18,NNE,31,0.0,0.0,60,0.00,,,0.02,Wunderground v.1.15,2013-08-05 23:05:00,
2013-08-05 19:14:00,71.5,57.8,29.18,NNE,31,0.0,0.0,62,0.00,,,0.02,Wunderground v.1.15,2013-08-05 23:14:00,
2013-08-05 19:20:00,71.4,58.1,29.18,NNE,31,0.0,0.0,63,0.00,,,0.02,Wunderground v.1.15,2013-08-05 23:20:00,
2013-08-05 19:29:00,71.5,58.7,29.18,NNE,31,0.0,0.0,64,0.00,,,0.02,Wunderground v.1.15,2013-08-05 23:29:00,
2013-08-05 19:34:00,71.7,60.6,29.17,NNE,31,0.0,0.0,68,0.00,,,0.02,Wunderground v.1.15,2013-08-05 23:34:00,
2013-08-05 19:39:00,72.0,60.0,29.18,NNE,31,0.0,0.0,66,0.00,,,0.02,Wunderground v.1.15,2013-08-05 23:39:00,
2013-08-05 19:50:00,72.0,59.6,29.18,NNE,31,0.0,0.0,65,0.00,,,0.02,Wunderground v.1.15,2013-08-05 23:50:00,
2013-08-05 19:59:00,71.9,58.6,29.17,NNE,31,0.0,0.0,63,0.00,,,0.02,Wunderground v.1.15,2013-08-05 23:59:00,
2013-08-05 20:04:00,71.8,58.5,29.17,NNE,31,0.0,0.0,63,0.00,,,0.02,Wunderground v.1.15,2013-08-06 00:04:00,
2013-08-05 20:09:00,71.6,58.3,29.17,NNE,31,0.0,0.0,63,0.00,,,0.02,Wunderground v.1.15,2013-08-06 00:09:00,
2013-08-05 20:15:00,71.4,58.1,29.17,NNE,31,0.0,0.0,63,0.00,,,0.02,Wunderground v.1.15,2013-08-06 00:15:00,
2013-08-05 20:24:00,70.6,58.3,29.17,NNE,31,0.0,0.0,65,0.00,,,0.02,Wunderground v.1.15,2013-08-06 00:24:00,
2013-08-05 20:29:00,70.3,59.6,29.17,NNE,31,0.0,0.0,69,0.00,,,0.02,Wunderground v.1.15,2013-08-06 00:29:00,
2013-08-05 20:34:00,69.9,59.3,29.17,NNE,31,0.0,0.0,69,0.00,,,0.02,Wunderground v.1.15,2013-08-06 00:34:00,
2013-08-05 20:39:00,69.4,59.6,29.18,NNE,31,0.0,0.0,71,0.00,,,0.02,Wunderground v.1.15,2013-08-06 00:39:00,
2013-08-05 20:44:00,68.8,59.8,29.18,NNE,31,0.0,0.0,73,0.00,,,0.02,Wunderground v.1.15,2013-08-06 00:44:00,
2013-08-05 20:50:00,67.8,59.2,29.18,NNE,31,0.0,0.0,74,0.00,,,0.02,Wunderground v.1.15,2013-08-06 00:50:00,
2013-08-05 21:00:00,66.8,59.4,29.18,NNE,31,0.0,0.0,77,0.00,,,0.02,Wunderground v.1.15,2013-08-06 01:00:00,
2013-08-05 21:10:00,65.7,59.4,29.18,NNE,31,0.0,0.0,80,0.00,,,0.02,Wunderground v.1.15,2013-08-06 01:10:00,
2013-08-05 21:15:00,65.0,59.0,29.18,NNE,31,0.0,0.0,81,0.00,,,0.02,Wunderground v.1.15,2013-08-06 01:15:00,
2013-08-05 21:20:00,64.8,59.2,29.18,NNE,31,0.0,0.0,82,0.00,,,0.02,Wunderground v.1.15,2013-08-06 01:20:00,
2013-08-05 21:25:00,64.6,59.0,29.18,NNE,31,0.0,0.0,82,0.00,,,0.02,Wunderground v.1.15,2013-08-06 01:25:00,
2013-08-05 21:30:00,64.0,58.4,29.18,NW,316,0.0,0.0,82,0.00,,,0.02,Wunderground v.1.15,2013-08-06 01:30:00,
2013-08-05 21:40:00,62.9,58.3,29.18,NW,311,1.0,1.0,85,0.00,,,0.02,Wunderground v.1.15,2013-08-06 01:40:00,
2013-08-05 21:45:00,62.8,58.2,29.18,NW,311,1.0,1.0,85,0.00,,,0.02,Wunderground v.1.15,2013-08-06 01:45:00,
2013-08-05 21:50:00,62.7,58.5,29.18,NW,311,0.0,0.0,86,0.00,,,0.02,Wunderground v.1.15,2013-08-06 01:50:00,
2013-08-05 21:55:00,62.8,58.5,29.18,NW,311,1.0,2.0,86,0.00,,,0.02,Wunderground v.1.15,2013-08-06 01:55:00,
2013-08-05 22:05:00,62.9,58.0,29.18,NW,311,1.0,2.0,84,0.00,,,0.02,Wunderground v.1.15,2013-08-06 02:05:00,
2013-08-05 22:15:00,62.9,58.0,29.18,NW,311,0.0,2.0,84,0.00,,,0.02,Wunderground v.1.15,2013-08-06 02:15:00,
2013-08-05 22:20:00,62.7,57.8,29.18,NW,311,1.0,4.0,84,0.00,,,0.02,Wunderground v.1.15,2013-08-06 02:20:00,
2013-08-05 22:25:00,62.8,57.9,29.18,NW,311,3.0,4.0,84,0.00,,,0.02,Wunderground v.1.15,2013-08-06 02:25:00,
2013-08-05 22:30:00,62.7,57.8,29.18,NW,311,2.0,2.0,84,0.00,,,0.02,Wunderground v.1.15,2013-08-06 02:30:00,
2013-08-05 22:35:00,62.6,57.4,29.18,NW,311,1.0,2.0,83,0.00,,,0.02,Wunderground v.1.15,2013-08-06 02:35:00,
2013-08-05 22:40:00,62.5,56.9,29.18,NW,311,1.0,1.0,82,0.00,,,0.02,Wunderground v.1.15,2013-08-06 02:40:00,
2013-08-05 22:50:00,62.4,56.8,29.18,NW,311,0.0,0.0,82,0.00,,,0.02,Wunderground v.1.15,2013-08-06 02:50:00,
2013-08-05 22:55:00,62.2,57.0,29.17,NW,311,0.0,0.0,83,0.00,,,0.02,Wunderground v.1.15,2013-08-06 02:55:00,
2013-08-05 23:00:00,62.0,57.1,29.17,NW,311,0.0,0.0,84,0.00,,,0.02,Wunderground v.1.15,2013-08-06 03:00:00,
2013-08-05 23:05:00,61.9,57.3,29.17,NW,311,0.0,0.0,85,0.00,,,0.02,Wunderground v.1.15,2013-08-06 03:05:00,
2013-08-05 23:10:00,61.4,57.2,29.17,NW,304,0.0,4.0,86,0.00,,,0.02,Wunderground v.1.15,2013-08-06 03:10:00,
2013-08-05 23:19:00,61.1,57.2,29.17,WNW,286,3.0,3.0,87,0.00,,,0.02,Wunderground v.1.15,2013-08-06 03:19:00,
2013-08-05 23:24:00,61.0,57.1,29.17,WNW,286,2.0,3.0,87,0.00,,,0.02,Wunderground v.1.15,2013-08-06 03:24:00,
2013-08-05 23:29:00,60.8,56.6,29.17,WNW,286,2.0,2.0,86,0.00,,,0.02,Wunderground v.1.15,2013-08-06 03:29:00,
2013-08-05 23:35:00,60.8,56.6,29.17,WNW,286,2.0,2.0,86,0.00,,,0.02,Wunderground v.1.15,2013-08-06 03:35:00,
2013-08-05 23:45:00,61.6,56.7,29.17,WNW,286,0.0,1.0,84,0.00,,,0.02,Wunderground v.1.15,2013-08-06 03:45:00,
2013-08-05 23:50:00,61.6,56.7,29.17,WNW,286,0.0,2.0,84,0.00,,,0.02,Wunderground v.1.15,2013-08-06 03:50:00,